Charter Quote
Worldwide +44-20-3874-8091 Call
Select Language Lang
SAFETY RELIABILITY EXPERIENCE

Tateyama Airport (RJTE) - Jet Charter Services

AIRPORT INFORMATION
ICAORJTE
LOCATIONTateyama, Japan
FACILITY TYPEAIRPORT
Runway Length (ft) Width (ft) Surface Type Elevation (ft)
27/09 984 148 CON 10.00000

At Paramount Business Jets you can hire chartered private jets to and from Tateyama Airport with as little as 4 hours of notice. All flights booked via Paramount Business Jets are operated by certified direct air carriers that meet and exceed the FAA part 135 and 121 protocol or a foreign equivalent safety authority. Furthermore, Paramount Business Jets subscribes to ARGUS for their third party safety checks of operators, aircraft, and crews prior each and every flight to and from Tateyama Airport and worldwide.

  • Quote a trip using Tateyama Airport or call us 24/7 - 365 days a year at +44-20-3874-8091.
Questions? Call +44-20-3874-8091

METAR Weather Data at Tateyama Airport, RJTE

STATIONRJTE
OBSERVEDSat Jun 15, 22:26 UTC
NOWThu Jun 20, 14:12 UTC
AGE111:46 hr ago
WINDSW at 23 mph, gusting to 52 mph
VISIBILITY16 miles
CLOUDSpartly cloudy
TEMP73°F (23°C)
DEWPT61°F (16°C)
HUMIDITY65%
BAROMETER990 hPa (29.23 in Hg)
METARRJTE 152226Z 23020G45KT 180V260 9999 FEW020 23/16 Q0990 RMK 1CU020 A2924

Call us on +44-20-3874-8091 (24 Hours) to Hire a Private Jet or Get a Quick Quote.

Find Airports Near any Location

Processing
...